Tracking 17632 objects as of 1-May-2016
HD Live streaming from Space Station
objects crossing your sky now

BREEZE-M DEB

Track BREEZE-M DEB now!
10-day predictions


NORAD ID: 34254
Int'l Code: 2006-006BV
Perigee: 416.4 km
Apogee: 12,293.8 km
Inclination: 51.6 °
Period: 238.1 minutes
Semi major axis: 12726 km
RCS: 0.033 m2 (small)
Launch date: February 28, 2006
Source: Commonwealth of Independent States (former USSR) (CIS)
Launch site: TYURATAM MISSILE AND SPACE COMPLEX (TTMTR)

Note: This is SATELLITE DEBRIS
Your satellite tracking list
Your tracking list is empty





NASA's NSSDC Master Catalog

Two Line Element Set (TLE):
1 34254U 06006BV  16097.17954765 +.00017652 +00000-0 +98498-2 0  9998
2 34254 051.5772 114.2329 4666571 348.4181 003.7772 06.04730187159639
Source of the keplerian elements: AFSPC

N2YO: 298